Regional Weather Roundup
Issued by NWS Upton, NY

Current Version | Previous Version | Graphics & Text | Print | Product List | Glossary Off
Versions: 1 2 3 4 5 6 7 8 9 10 11 12 13 14 15 16 17 18 19 20 21 22 23 24 25 26 27 28 29 30 31 32 33 34 35 36 37 38 39 40 41 42 43 44 45 46 47 48 49 50

000
ASUS41 KOKX 270204
RWROKX

REGIONAL WEATHER ROUNDUP
NATIONAL WEATHER SERVICE NEW YORK NY
1000 PM EDT WED AUG 26 2015

NOTE: "FAIR" INDICATES FEW OR NO CLOUDS BELOW 12,000 FEET WITH NO
SIGNIFICANT WEATHER AND/OR OBSTRUCTIONS TO VISIBILITY.

NYZ071-072-176-178-NJZ106-104-270300-
NEW YORK CITY METRO AREA


CITY           SKY/WX    TMP DP  RH WIND       PRES   REMARKS
CENTRAL PARK   CLEAR     75  52  44 CALM      30.02R
LAGUARDIA APRT PTCLDY    75  54  47 NW14      29.98R
KENNEDY INTL   PTCLDY    77  53  43 NW7       30.00R
NEWARK/LIBERTY PTCLDY    74  54  49 NW10      30.00R
BRNX BOT. GARD   N/A     72  52  49 W6        30.00F
TETERBORO      CLEAR     72  52  49 NW5       29.99R
$$

NYZ177-179-078>081-270300-
LONG ISLAND NEW YORK

CITY           SKY/WX    TMP DP  RH WIND       PRES   REMARKS
FARMINGDALE    CLEAR     73  54  51 NW3       29.99R
ISLIP          PTCLDY    71  57  61 CALM      29.97R
SHIRLEY        CLEAR     68  60  75 CALM      29.99R
WESTHAMPTON    CLEAR     69  58  67 CALM      29.99R
MONTAUK POINT    N/A     73  62  68 CALM      29.99R
$$

NYZ052-065-067-270300-
HUDSON VALLEY

CITY           SKY/WX    TMP DP  RH WIND       PRES   REMARKS
WHITE PLAINS   CLEAR     68  54  60 NW7       30.00R
NEWBURGH       PTCLDY    64  59  82 CALM      30.02R
MONTGOMERY     CLOUDY    64  58  80 CALM      30.01R
POUGHKEEPSIE   MOCLDY    64  57  78 CALM      29.99R
ALBANY         MOCLDY    69  51  52 NW9       29.99R
$$

NJZ001-105-106-008-010-013-015-019>022-104-270300-
NEW JERSEY

CITY           SKY/WX    TMP DP  RH WIND       PRES   REMARKS
NEWARK/LIBERTY PTCLDY    74  54  49 NW10      30.00R
TETERBORO      CLEAR     72  52  49 NW5       29.99R
CALDWELL       CLOUDY    71  54  54 W3        30.01R
MORRISTOWN     NOT AVBL
SOMERVILLE     CLOUDY    66  57  72 CALM      30.00R
SUSSEX         PTCLDY    61  57  87 CALM      30.03R
ANDOVER          N/A     61  57  87 CALM      30.04R
TRENTON        CLEAR     70  54  56 NW5       30.02R
MILLVILLE      CLEAR     60  56  86 W5        30.04R
ATLANTIC CITY  CLEAR     70  55  59 W7        30.03R
WRIGHTSTOWN    CLEAR     68  54  61 W6        30.00R
TOMS RIVER     CLEAR     63  54  72 W3        30.02S
BELMAR         CLEAR     68  54  60 W5        30.01R
$$

PAZ047>061-062-071-270300-
EASTERN PENNSYLVANIA

CITY           SKY/WX    TMP DP  RH WIND       PRES   REMARKS
PHILADELPHIA   CLEAR     75  52  44 NW9       30.04R
ALLENTOWN      CLEAR     65  54  67 W5        30.04R
SCRANTON       MOCLDY    62  55  77 S3        30.05R
$$

CTZ002-004>006-009-010-012-RIZ004-006-007-MAZ004-011-015-270300-
SOUTHERN NEW ENGLAND
 IN CT

CITY           SKY/WX    TMP DP  RH WIND       PRES   REMARKS
BRADLEY INTL   CLEAR     65  56  72 NW5       29.97R
HARTFORD       CLEAR     72  55  55 NW7       29.97R
DANBURY        CLEAR     62  55  77 SW3       30.02R
WTRBRY/OXFORD  CLEAR     63  54  72 CALM      30.02R
BRIDGEPORT     CLEAR     72  54  53 NW5       29.98R
MERIDEN        PTCLDY    64  58  80 CALM      29.98R
NEW HAVEN      CLEAR     66  57  72 CALM      29.98R
CHESTER        NOT AVBL
GROTON         CLEAR     67  57  70 N5        29.97R
WILLIMANTIC    CLEAR     65  57  75 CALM      29.98R

 IN RI

CITY           SKY/WX    TMP DP  RH WIND       PRES   REMARKS
PROVIDENCE     PTCLDY    69  57  65 W6        29.96R
BLOCK ISLAND   CLEAR     70  64  83 W5        29.97R
WESTERLY       CLEAR     65  58  78 CALM      29.97R

 IN MA

CITY           SKY/WX    TMP DP  RH WIND       PRES   REMARKS
BOSTON         PTCLDY    74  57  55 W10       29.93R
WORCESTER      CLEAR     63  55  75 W8        29.99R
WESTFIELD      CLEAR     61  57  87 VRB3      29.98R
PROVINCETOWN   PTCLDY    73  61  64 W10       29.92R
NANTUCKET      CLEAR     70  64  81 W9        29.94R
$$

ANZ330-335-338-340-345-350-353-355-270300-
COASTAL MARINE OBSERVATIONS


STATION/POSITION TIME  SKY/WX   TEMP    WIND        PRES    VSBY  WAVE
                                AIR SEA DIR/SP/G                  HT/PER
                 (UTC)          (F)     (DEG/KT/KT) (MB)    (MI)  (FT/S)
NY HARB ENTRANCE 0050            77 76  270/ 12/ 14 1014.6          2/11
4S FIRE IS       NOT AVBL
20S FIRE ISLAND  0050            76 75  240/ 12/ 14 1014.7          2/11
GREAT SOUTH BAY  NOT AVBL
23SW MTP         0150            76 75  260/ 16/ 17 1014.4          3/ 4
HUDSON CANYON    NOT AVBL
KINGS POINT      0100            76 74  340/  7/  9 1014.2
EXECUTION ROCKS  0100            76     270/  8/ 10   N/A
CENTRAL LI SOUND NOT AVBL
EASTERN LI SOUND 0100            72 72  290/  4/  4   N/A
ROBBINS REEF     0100            76     290/ 13/ 15 1014.1
$$


>>>>>>>>>>>>>>>>>>>>>>>>>>>> KEY <<<<<<<<<<<<<<<<<<<<<<<<<<<
>                                                          <
>     SKY/WX - SKY CONDITION/PRESENT WEATHER               <
>     TMP    - TEMPERATURE IN FAHRENHEIT                   <
>     DP     - DEWPOINT IN FAHRENHEIT                      <
>     RH     - RELATIVE HUMIDITY IN PERCENT                <
>     WIND   - DIRECTION AND SPEED IN MPH                  <
>     PRES   - MEAN SEA LEVEL PRESSURE IN INCHES OF HG     <
>     WCI    - WIND CHILL INDEX                            <
>     VSB    - VISIBILITY IN MILES                         <
>     HX     - HEAT INDEX                                  <
>     TC     - TEMPERATURE IN CELSIUS                      <
>     VRB    - VARIABLE WIND DIRECTION                     <
>                                                          <
>>>>>>>>>>>>>>>>>>>>>>>>>>>> KEY <<<<<<<<<<<<<<<<<<<<<<<<<<<




USA.gov is the U.S. government's official web portal to all federal, state and local government web resources and services.